This demonstration page uses our WeatherBlox Daily Observations layout. Learn more.

Left ArrowRight Arrow

36.17497, -115.13722

Hourly Observations for February 5, 2020

Temp ( °F °C ) Dew Point ( °F °C ) Humidity (%) Winds ( mph kmh ) Pressure ( in mb ) Visibility ( mi km ) Precip ( " mm )
12:53 am 00:53 Clear 36 2.2 1 -17.2 22 22 NNE 7 11 30.27 1025 10 16.0934 0 0
1:53 am 01:53 Clear 37 2.8 1 -17.2 22 22 NNE 7 11 30.27 1025 10 16.0934 0 0
2:53 am 02:53 Clear 35 1.7 3 -16.1 26 26 NE 6 9 30.26 1025 10 16.0934 0 0
3:53 am 03:53 Clear 36 2.2 3 -16.1 25 25 Calm 30.26 1025 10 16.0934 0 0
4:53 am 04:53 Clear 36 2.2 3 -16.1 25 25 WNW 17 28 30.24 1024 10 16.0934 0 0
5:53 am 05:53 Clear 35 1.7 4 -15.6 27 27 NW 8 13 30.27 1025 10 16.0934 0 0
6:53 am 06:53 Sunny 36 2.2 4 -15.6 26 26 NNW 13 20 30.27 1025 10 16.0934 0 0
7:53 am 07:53 Sunny 35 1.7 4 -15.6 27 27 NW 8 13 30.28 1025 10 16.0934 0 0
8:53 am 08:53 Sunny 40 4.4 4 -15.6 22 22 NW 12 19 30.28 1026 10 16.0934 0 0
9:53 am 09:53 Sunny 43 6.1 6 -14.4 22 22 E 7 11 30.29 1026 10 16.0934 0 0
10:53 am 10:53 Sunny 43 6.1 6 -14.4 22 22 ESE 6 9 30.27 1025 10 16.0934 0 0
11:53 am 11:53 Sunny 45 7.2 6 -14.4 20 20 SSE 8 13 30.23 1024 10 16.0934 0 0
12:53 pm 12:53 Sunny 48 8.9 7 -13.9 19 19 SSE 9 15 30.19 1022 10 16.0934 0 0
1:53 pm 13:53 Sunny 49 9.4 7 -13.9 18 18 S 9 15 30.16 1021 10 16.0934 0 0
2:53 pm 14:53 Sunny 50 10 8 -13.3 18 18 ESE 6 9 30.14 1021 10 16.0934 0 0
3:53 pm 15:53 Sunny 51 10.6 9 -12.8 18 18 SSE 7 11 30.12 1020 10 16.0934 0 0
4:53 pm 16:53 Sunny 50 10 10 -12.2 20 20 SE 8 13 30.12 1020 10 16.0934 0 0
5:53 pm 17:53 Clear 48 8.9 10 -12.2 21 21 ESE 6 9 30.12 1020 10 16.0934 0 0
6:53 pm 18:53 Clear 47 8.3 10 -12.2 22 22 Calm 30.13 1020 10 16.0934 0 0
7:53 pm 19:53 Clear 43 6.1 13 -10.6 29 29 N 3 6 30.15 1021 10 16.0934 0 0
8:53 pm 20:53 Clear 43 6.1 13 -10.6 29 29 NNW 3 6 30.15 1021 10 16.0934 0 0
9:53 pm 21:53 Clear 42 5.6 13 -10.6 30 30 WNW 6 9 30.15 1021 10 16.0934 0 0
10:53 pm 22:53 Clear 40 4.4 14 -10 35 35 WNW 5 7 30.15 1021 10 16.0934 0 0
11:53 pm 23:53 Clear 39 3.9 15 -9.4 38 38 Calm 30.16 1021 10 16.0934 0 0

Powered by AerisWeather